Location: Lombard
(41.8800°N, 88.0080°W)
Time: 20:26:20
(UTC-06:00)

N. Korean satellite - Visible Passes

Search period start: 05 December 2021 00:00
Search period end: 15 December 2021 00:00
Orbit: 446 x 495 km, 97.3° (Epoch: 05 December)

Date Brightness Start Highest point End Pass type
(mag) Time Alt. Az. Time Alt. Az. Time Alt. Az.
05 Dec 8.2 04:40:17 10° NNE 04:43:22 32° E 04:46:25 10° SSE visible
05 Dec 8.2 06:14:29 10° NW 06:16:15 14° WNW 06:18:01 10° W visible
05 Dec 8.4 16:47:22 10° SSW 16:50:38 35° W 16:53:52 10° NNW visible
06 Dec 9.6 04:12:47 10° ENE 04:14:40 14° E 04:16:33 10° SE visible
06 Dec 7.2 05:44:58 10° N 05:47:56 29° WNW 05:50:55 10° SW visible
07 Dec 6.2 05:16:08 10° N 05:19:30 75° WNW 05:22:52 10° SSW visible
07 Dec 9.9 17:25:20 10° WSW 17:26:56 13° W 17:28:31 10° WNW visible
08 Dec 7.7 04:47:42 10° NNE 04:50:56 41° E 04:54:09 10° S visible
08 Dec 8.4 06:22:42 10° NW 06:23:44 11° WNW 06:24:47 10° W visible
08 Dec 8.9 16:55:10 10° SSW 16:58:13 28° W 17:01:16 10° NW visible
09 Dec 9.3 04:19:54 10° NE 04:22:15 18° E 04:24:37 10° SE visible
09 Dec 7.5 05:52:39 10° NNW 05:55:26 24° WNW 05:58:12 10° SW visible
10 Dec 6.3 05:26:14 44° NNW 05:27:00 57° WNW 05:30:19 10° SSW visible
11 Dec 7.1 04:58:04 50° ENE 04:58:26 53° E 05:01:46 10° S visible
11 Dec 9.3 17:02:57 10° SSW 17:05:44 22° W 17:08:30 10° NW visible
12 Dec 8.9 04:29:41 22° E 04:29:46 22° E 04:32:29 10° SSE visible
12 Dec 8.0 06:03:48 17° W 06:03:48 17° W 06:05:21 10° WSW visible
13 Dec 7.1 05:35:19 35° WSW 05:35:19 35° WSW 05:37:40 10° SSW visible
14 Dec 7.2 05:06:47 44° S 05:06:47 44° S 05:09:15 10° S visible
14 Dec 9.6 17:10:45 10° SW 17:13:11 18° W 17:15:37 10° NW visible
